Location: Koslow
(50.3020°N, 18.5663°E)
Time: 08:13:17
(UTC+00:00)

STARLINK-1357 - Pass Details

Date: 03 October 2020
Orbit: 548 x 551 km, 53.0° (Epoch: 31 October)

Event Time Altitude Azimuth Distance (km) Brightness Sun altitude
Exits shadow 02:31:20 63° 329° (NNW) 618 3.7 -22.4°
Maximum altitude 02:31:33 65° 349° (N) 611 3.8 -22.4°
Drops below altitude 10° 02:35:40 10° 72° (ENE) 1,818 7.4 -21.8°
Sets 02:37:57 0° 76° (ENE) 2,727 8.7 -21.5°
